• In Hungary
  • List of Countries
  • For 7 days
  • Water Temperature
  • Satellite Maps
  • Weather Map
  • News
  • Weather Widgets
  • user-avatar
    Login

    Hourly Weather Probiinivka

    Today, 18 October, Thursday

    Time Temperature Precipitation Wind Pressure Humidity
    00:00 +8°C° 0 mm 1 mps 669 mmHg 74%
    01:00 +8°C° 0 mm 1 mps 669 mmHg 74%
    02:00 +7°C° 0 mm 1 mps 669 mmHg 74%
    03:00 +7°C° 0 mm 1 mps 669 mmHg 74%
    04:00 +7°C° 0 mm 1 mps 668 mmHg 73%
    05:00 +7°C° 0 mm 1 mps 668 mmHg 73%
    06:00 +8°C° 0 mm 1 mps 668 mmHg 70%
    07:00 +8°C° 0 mm 1 mps 669 mmHg 68%
    08:00 +9°C° 0 mm 1 mps 669 mmHg 66%
    09:00 +12°C° 0 mm 1 mps 669 mmHg 57%
    10:00 +15°C° 0 mm 1 mps 670 mmHg 49%
    11:00 +19°C° 0 mm 1 mps 670 mmHg 41%
    12:00 +19°C° 0 mm 1 mps 670 mmHg 40%
    13:00 +20°C° 0 mm 1 mps 670 mmHg 39%
    14:00 +20°C° 0 mm 1 mps 670 mmHg 37%
    15:00 +18°C° 0 mm 1 mps 669 mmHg 44%
    16:00 +15°C° 0 mm 1 mps 668 mmHg 51%
    17:00 +13°C° 0 mm 1 mps 668 mmHg 58%
    18:00 +12°C° 0 mm 1 mps 668 mmHg 62%
    19:00 +11°C° 0 mm 1 mps 667 mmHg 67%
    20:00 +10°C° 0 mm 1 mps 667 mmHg 71%
    21:00 +9°C° 0 mm 1 mps 667 mmHg 72%
    22:00 +9°C° 0 mm 1 mps 667 mmHg 73%
    23:00 +9°C° 0 mm 1 mps 667 mmHg 74%

    Tomorrow, 19 October, Friday

    Time Temperature Precipitation Wind Pressure Humidity
    00:00 +8°C° 0 mm 1 mps 667 mmHg 75%
    01:00 +8°C° 0 mm 1 mps 667 mmHg 76%
    02:00 +8°C° 0 mm 1 mps 667 mmHg 77%
    03:00 +8°C° 0 mm 1 mps 667 mmHg 77%
    04:00 +8°C° 0 mm 1 mps 667 mmHg 78%
    05:00 +8°C° 0 mm 1 mps 667 mmHg 78%
    06:00 +8°C° 0 mm 1 mps 667 mmHg 77%
    07:00 +9°C° 0 mm 1 mps 667 mmHg 75%
    08:00 +9°C° 0 mm 1 mps 668 mmHg 74%
    09:00 +11°C° 0 mm 1 mps 668 mmHg 67%
    10:00 +13°C° 0 mm 1 mps 669 mmHg 61%
    11:00 +14°C° 0 mm 1 mps 669 mmHg 54%
    12:00 +14°C° 0 mm 1 mps 669 mmHg 54%
    13:00 +15°C° 0 mm 2 mps 669 mmHg 53%
    14:00 +15°C° 0 mm 2 mps 669 mmHg 53%
    15:00 +14°C° 0 mm 2 mps 669 mmHg 59%
    16:00 +12°C° 0 mm 1 mps 668 mmHg 65%
    17:00 +11°C° 0 mm 1 mps 668 mmHg 71%
    18:00 +10°C° 0 mm 1 mps 668 mmHg 75%
    19:00 +9°C° 0 mm 1 mps 668 mmHg 80%
    20:00 +8°C° 0 mm 1 mps 668 mmHg 84%
    21:00 +7°C° 0 mm 1 mps 668 mmHg 85%
    22:00 +7°C° 0 mm 1 mps 668 mmHg 86%
    23:00 +7°C° 0 mm 1 mps 669 mmHg 86%

    Day after tomorrow, 20 October, Saturday

    Time Temperature Precipitation Wind Pressure Humidity
    00:00 +6°C° 0 mm 1 mps 669 mmHg 87%
    01:00 +6°C° 0 mm 1 mps 669 mmHg 87%
    02:00 +6°C° 0 mm 1 mps 669 mmHg 88%
    03:00 +6°C° 0 mm 1 mps 669 mmHg 89%
    04:00 +5°C° 0 mm 1 mps 669 mmHg 90%
    05:00 +5°C° 0 mm 1 mps 669 mmHg 91%
    06:00 +6°C° 0 mm 1 mps 669 mmHg 89%
    07:00 +6°C° 0 mm 1 mps 670 mmHg 88%
    08:00 +7°C° 0 mm 1 mps 670 mmHg 87%
    09:00 +9°C° 0 mm 1 mps 671 mmHg 80%
    10:00 +9°C° 0 mm 2 mps 671 mmHg 72%
    11:00 +12°C° 0 mm 2 mps 672 mmHg 65%
    12:00 +12°C° 0 mm 2 mps 671 mmHg 65%
    13:00 +12°C° 0 mm 2 mps 671 mmHg 64%
    14:00 +13°C° 0 mm 2 mps 671 mmHg 63%
    15:00 +12°C° 0 mm 2 mps 671 mmHg 68%
    16:00 +10°C° 0 mm 2 mps 671 mmHg 72%
    17:00 +9°C° 0 mm 2 mps 671 mmHg 77%
    18:00 +8°C° 0 mm 2 mps 671 mmHg 82%
    19:00 +7°C° 0 mm 2 mps 671 mmHg 87%
    20:00 +7°C° 0 mm 1 mps 671 mmHg 91%
    21:00 +6°C° 0 mm 2 mps 671 mmHg 92%
    22:00 +5°C° 0 mm 2 mps 671 mmHg 92%
    23:00 +5°C° 0 mm 2 mps 671 mmHg 92%

    21 October, Sunday

    Time Temperature Precipitation Wind Pressure Humidity
    00:00 +6°C° 0 mm 1 mps 671 mmHg 92%
    01:00 +6°C° 0 mm 1 mps 671 mmHg 92%
    02:00 +5°C° 0 mm 1 mps 671 mmHg 92%
    03:00 +5°C° 0 mm 1 mps 671 mmHg 93%
    04:00 +4°C° 0 mm 1 mps 671 mmHg 93%
    05:00 +4°C° 0 mm 1 mps 670 mmHg 94%
    06:00 +4°C° 0 mm 1 mps 671 mmHg 90%
    07:00 +4°C° 0 mm 1 mps 671 mmHg 87%
    08:00 +4°C° 0 mm 1 mps 671 mmHg 84%
    09:00 +4°C° 0 mm 2 mps 671 mmHg 77%
    10:00 +5°C° 0 mm 2 mps 671 mmHg 69%
    11:00 +7°C° 0 mm 2 mps 671 mmHg 62%
    12:00 +7°C° 0 mm 3 mps 671 mmHg 62%
    13:00 +5°C° 0 mm 3 mps 671 mmHg 62%
    14:00 +5°C° 0 mm 3 mps 670 mmHg 61%
    15:00 +4°C° 0 mm 3 mps 670 mmHg 64%
    16:00 +3°C° 0 mm 3 mps 669 mmHg 67%
    17:00 +3°C° 0 mm 2 mps 669 mmHg 69%
    18:00 +2°C° 0 mm 2 mps 669 mmHg 75%
    19:00 +1°C° 0 mm 2 mps 669 mmHg 80%
    20:00 -1°C° 0 mm 2 mps 669 mmHg 86%
    21:00 -1°C° 0.1 mm 2 mps 669 mmHg 87%
    22:00 +1°C° 0.1 mm 2 mps 669 mmHg 88%
    23:00 +1°C° 0.1 mm 2 mps 669 mmHg 88%

    22 October, Monday

    Time Temperature Precipitation Wind Pressure Humidity
    00:00 +1°C° 0.2 mm 2 mps 669 mmHg 89%
    01:00 +1°C° 0.2 mm 2 mps 669 mmHg 89%
    02:00 +1°C° 0.2 mm 2 mps 668 mmHg 89%
    03:00 -1°C° 0.2 mm 2 mps 668 mmHg 90%
    04:00 -1°C° 0.2 mm 2 mps 668 mmHg 90%
    05:00 -1°C° 0.2 mm 2 mps 668 mmHg 90%
    06:00 -1°C° 0.1 mm 2 mps 669 mmHg 89%
    07:00 -1°C° 0.1 mm 2 mps 669 mmHg 88%
    08:00 -1°C° 0.1 mm 2 mps 669 mmHg 86%
    09:00 +1°C° 0 mm 2 mps 669 mmHg 81%
    10:00 +2°C° 0 mm 2 mps 670 mmHg 76%
    11:00 +3°C° 0 mm 2 mps 670 mmHg 71%
    12:00 +3°C° 0 mm 2 mps 670 mmHg 67%
    13:00 +4°C° 0 mm 2 mps 670 mmHg 64%
    14:00 +5°C° 0 mm 2 mps 670 mmHg 60%
    15:00 +5°C° 0 mm 1 mps 670 mmHg 66%
    16:00 +4°C° 0 mm 1 mps 669 mmHg 72%
    17:00 +3°C° 0 mm 1 mps 669 mmHg 78%
    18:00 +1°C° 0 mm 1 mps 669 mmHg 82%
    19:00 0°C° 0 mm 1 mps 669 mmHg 87%
    20:00 -1°C° 0 mm 1 mps 669 mmHg 91%
    21:00 -1°C° 0 mm 1 mps 669 mmHg 90%
    22:00 -1°C° 0 mm 1 mps 668 mmHg 90%
    23:00 -1°C° 0 mm 1 mps 668 mmHg 89%

    23 October, Tuesday

    Time Temperature Precipitation Wind Pressure Humidity
    00:00 -1°C° 0 mm 1 mps 668 mmHg 86%
    01:00 -1°C° 0 mm 1 mps 667 mmHg 84%
    02:00 -1°C° 0 mm 1 mps 667 mmHg 81%
    03:00 -2°C° 0 mm 1 mps 667 mmHg 79%
    04:00 -2°C° 0 mm 1 mps 666 mmHg 77%
    05:00 -2°C° 0 mm 1 mps 666 mmHg 76%
    06:00 -1°C° 0 mm 1 mps 666 mmHg 72%
    07:00 0°C° 0 mm 1 mps 665 mmHg 69%
    08:00 0°C° 0 mm 1 mps 665 mmHg 65%
    09:00 +3°C° 0 mm 1 mps 665 mmHg 58%
    10:00 +5°C° 0 mm 1 mps 665 mmHg 51%
    11:00 +8°C° 0 mm 1 mps 666 mmHg 44%
    12:00 +8°C° 0 mm 1 mps 665 mmHg 43%
    13:00 +8°C° 0 mm 1 mps 664 mmHg 42%
    14:00 +9°C° 0 mm 1 mps 664 mmHg 42%
    15:00 +7°C° 0 mm 1 mps 663 mmHg 49%
    16:00 +5°C° 0 mm 1 mps 662 mmHg 57%
    17:00 +4°C° 0 mm 1 mps 662 mmHg 64%
    18:00 +3°C° 0 mm 1 mps 661 mmHg 69%
    19:00 +2°C° 0 mm 1 mps 661 mmHg 74%
    20:00 +1°C° 0 mm 1 mps 661 mmHg 79%
    21:00 +1°C° 0 mm 1 mps 661 mmHg 79%
    22:00 0°C° 0 mm 1 mps 661 mmHg 80%
    23:00 0°C° 0 mm 1 mps 661 mmHg 80%
    Show more